Concordia, KS

1:03 PM CDT on October 19, 2019 (GMT -0500)
Blosser Municipal

Weather History for KCNK - August, 2019

Change the Weather History Date:

Monday, August 26, 2019

  Actual Average Record
Temperature  
Mean Temperature 74 °F 76 °F  
Max Temperature 82 °F 87 °F 105 °F (1936)
Min Temperature 66 °F 64 °F 44 °F (1910)
Degree Days  
Heating Degree Days 0 0  
Month to date heating degree days 0 0  
Since 1 June heating degree days 0 13  
Since 1 July heating degree days 0 0  
Cooling Degree Days 9 11  
Month to date cooling degree days 334 327  
Year to date cooling degree days 1239 1117  
Since 1 June cooling degree days 1139 1028  
Growing Degree Days 26 (Base 50)    
Moisture  
Dew Point 68 °F    
Average Humidity 82    
Maximum Humidity 97    
Minimum Humidity 67    
Precipitation  
Precipitation 0.01 in 0.09 in 2.54 in (1908)
Month to date precipitation 5.98 2.66  
Year to date precipitation 28.21 20.62  
Snow  
Snow 0.00 in 0.00 in 0.00 in ()
Month to date snowfall 0.0 0.0  
Year to date snowfall 32.3 13.7  
Since 1 July snowfall 0.0 0.0  
Snow Depth 0.00 in    
Sea Level Pressure  
Sea Level Pressure 29.76 in    
Wind  
Wind Speed 8 mph (ENE)    
Max Wind Speed 17 mph    
Max Gust Speed 26 mph    
Visibility 8 miles    
Events Rain    
T = Trace of Precipitation, MM = Missing Value Source: NWS Daily Summary

Daily Weather History Graph

Daily Weather History Graph

Search for Another Location

Airport or City:

Astronomy

Aug. 26, 2019 Rise Set
Actual Time 6:53 AM CDT 8:11 PM CDT
Civil Twilight 6:25 AM CDT 8:38 PM CDT
Nautical Twilight 5:51 AM CDT 9:12 PM CDT
Astronomical Twilight 5:16 AM CDT 9:47 PM CDT
Moon 2:20 AM CDT (8/26) 5:34 PM CDT (8/26)
Length of Visible Light 14h 13m
Length of Day
13h 17m
Waning Crescent, 19% of the Moon is Illuminated
Aug 26
Waning Crescent
Aug 30
New
Sep 5
First Quarter
Sep 13
Full
Sep 21
Last Quarter

Hourly Weather History & Observations

Time (CDT) Temp. Heat Index Dew Point Humidity Pressure Visibility Wind Dir Wind Speed Gust Speed Precip Events Conditions
12:55 AM 70.0 °F - 66.9 °F 90% 29.77 in 10.0 mi ESE 6.9 mph - N/A   Overcast
1:39 AM 69.1 °F - 66.9 °F 93% 29.80 in 10.0 mi ESE 8.1 mph - N/A   Mostly Cloudy
1:55 AM 69.1 °F - 66.9 °F 93% 29.76 in 10.0 mi SE 8.1 mph - N/A   Mostly Cloudy
2:04 AM 69.1 °F - 66.9 °F 93% 29.80 in 10.0 mi SE 6.9 mph - N/A   Mostly Cloudy
2:40 AM 69.1 °F - 68.0 °F 96% 29.77 in 10.0 mi SE 8.1 mph - N/A   Mostly Cloudy
2:55 AM 69.1 °F - 66.9 °F 93% 29.74 in 10.0 mi SE 8.1 mph - N/A   Mostly Cloudy
3:24 AM 70.0 °F - 68.0 °F 93% 29.76 in 10.0 mi SE 8.1 mph - N/A   Overcast
3:55 AM 70.0 °F - 68.0 °F 93% 29.71 in 10.0 mi SE 9.2 mph - N/A   Overcast
4:55 AM 69.1 °F - 66.9 °F 93% 29.68 in 10.0 mi SE 9.2 mph - N/A   Partly Cloudy
5:44 AM 69.1 °F - 68.0 °F 96% 29.72 in 10.0 mi East 8.1 mph - N/A   Mostly Cloudy
5:52 AM 69.8 °F - 68.0 °F 94% 29.73 in 10.0 mi East 8.1 mph - N/A   Mostly Cloudy
5:53 AM 69.1 °F - 68.0 °F 96% 29.68 in 10.0 mi East 6.9 mph - N/A   Mostly Cloudy
6:55 AM 69.1 °F - 66.9 °F 93% 29.65 in 10.0 mi SE 13.8 mph - N/A   Mostly Cloudy
7:03 AM 69.1 °F - 68.0 °F 96% 29.69 in 10.0 mi SSE 9.2 mph - N/A   Mostly Cloudy
7:20 AM 70.0 °F - 68.0 °F 93% 29.73 in 10.0 mi East 4.6 mph - N/A   Mostly Cloudy
7:42 AM 70.0 °F - 68.0 °F 93% 29.76 in 10.0 mi NNE 5.8 mph - N/A   Overcast
7:55 AM 70.0 °F - 68.0 °F 93% 29.72 in 10.0 mi East 4.6 mph - N/A   Overcast
8:55 AM 70.0 °F - 68.0 °F 93% 29.73 in 4.0 mi ENE 5.8 mph - N/A   Overcast
9:13 AM 70.0 °F - 68.0 °F 93% 29.75 in 4.0 mi ENE 6.9 mph - N/A   Overcast
9:29 AM 70.0 °F - 68.0 °F 93% 29.75 in 2.0 mi East 3.5 mph - 0.00 in Rain Light Rain
9:36 AM 70.0 °F - 68.0 °F 93% 29.74 in 1.8 mi East 5.8 mph - 0.00 in Rain Light Rain
9:44 AM 70.0 °F - 68.0 °F 93% 29.75 in 1.5 mi East 5.8 mph - 0.00 in Rain Light Rain
9:51 AM 69.8 °F - 68.0 °F 94% 29.75 in 1.8 mi East 8.1 mph - 0.00 in Rain Light Rain
9:55 AM 70.0 °F - 68.0 °F 93% 29.71 in 2.0 mi East 6.9 mph - 0.01 in Rain Light Rain
10:31 AM 70.0 °F - 68.0 °F 93% 29.76 in 3.0 mi ENE 8.1 mph - 0.00 in   Overcast
10:55 AM 70.0 °F - 68.0 °F 93% 29.73 in 6.0 mi East 5.8 mph - 0.00 in   Overcast
11:55 AM 71.1 °F - 68.0 °F 90% 29.74 in 10.0 mi East 6.9 mph - N/A   Overcast
12:55 PM 72.0 °F - 69.1 °F 91% 29.75 in 10.0 mi SE 4.6 mph - N/A   Overcast
1:55 PM 72.0 °F - 69.1 °F 91% 29.77 in 2.0 mi North 9.2 mph - 0.00 in Rain Light Rain
2:10 PM 72.0 °F - 70.0 °F 93% 29.81 in 5.0 mi North 6.9 mph - 0.00 in Rain Light Rain
3:22 PM 77.0 °F - 71.1 °F 82% 29.81 in 10.0 mi NNE 9.2 mph - N/A   Mostly Cloudy
3:55 PM 78.1 °F - 70.0 °F 76% 29.77 in 10.0 mi North 13.8 mph - N/A   Mostly Cloudy
4:55 PM 80.1 °F 82.7 °F 68.0 °F 67% 29.77 in 10.0 mi NNE 11.5 mph 20.7 mph N/A   Scattered Clouds
5:55 PM 79.0 °F - 69.1 °F 72% 29.80 in 10.0 mi North 10.4 mph - N/A   Mostly Cloudy
6:55 PM 78.1 °F - 68.0 °F 71% 29.82 in 10.0 mi North 12.7 mph - N/A   Clear
7:55 PM 75.0 °F - 66.0 °F 73% 29.85 in 10.0 mi North 8.1 mph - N/A   Partly Cloudy
8:55 PM 72.0 °F - 64.9 °F 78% 29.88 in 10.0 mi North 5.8 mph - N/A   Clear
9:55 PM 71.1 °F - 64.0 °F 78% 29.90 in 10.0 mi North 6.9 mph - N/A   Clear
10:55 PM 69.1 °F - 64.0 °F 84% 29.91 in 10.0 mi NW 5.8 mph - N/A   Clear
11:55 PM 68.0 °F - 62.1 °F 81% 29.93 in 10.0 mi North 8.1 mph - N/A   Clear